^^
Station Historical Data
Daily Summary for Nil La, TWC- Units:  Metric    English   Both
« Previous Day
Next Day »
Daily Weekly Monthly Yearly Custom
  High: Low: Average:
Temperature: -17.8 °C -10.6 °C -9.4 °C
Dew Point: -17.8 °C -11.4 °C -10.4 °C
Humidity: Humidity% 76% 88%
Wind Speed: 0km/h 0km/h 0km/h
Wind Gust: 0km/h - -
Wind- - South
Pressure: 0 hPa 34334 hPa -
Precipitation: 0 mm    
Historical Graphs
 
 
Tabular Data for Nil La, TWC-
Time Temperature Dew Point Pressure Wind Wind Speed Wind Gust Humidity Rainfall Rate (Hourly) solar Conditions
-17.8 °C -17.8 °C 0 hPa Calm     Humidity% 0 mm SoftwareType W/m2 Conditions
00:04 -9.4 °C -10.6 °C 34391.6 hPa Calm     87% 0 mm WeatherDisplay:10.37 W/m2 FEW
00:09 -9.4 °C -10.6 °C 34391.6 hPa Calm     87% 0 mm WeatherDisplay:10.37 W/m2 FEW
00:14 -9.5 °C -10.6 °C 34391.6 hPa Calm     88% 0 mm WeatherDisplay:10.37 W/m2 FEW
00:19 -9.5 °C -10.6 °C 34391.6 hPa Calm     88% 0 mm WeatherDisplay:10.37 W/m2 FEW
00:24 -9.5 °C -10.6 °C 34388.2 hPa Calm     88% 0 mm WeatherDisplay:10.37 W/m2 FEW
00:29 -9.5 °C -10.6 °C 34388.2 hPa Calm     88% 0 mm WeatherDisplay:10.37 W/m2 FEW
00:34 -9.5 °C -10.6 °C 34384.8 hPa Calm     88% 0 mm WeatherDisplay:10.37 W/m2 FEW
00:39 -9.4 °C -10.6 °C 34384.8 hPa Calm     88% 0 mm WeatherDisplay:10.37 W/m2 FEW
00:44 -9.4 °C -10.6 °C 34384.8 hPa Calm     88% 0 mm WeatherDisplay:10.37 W/m2 FEW
00:49 -9.4 °C -10.6 °C 34384.8 hPa Calm     88% 0 mm WeatherDisplay:10.37 W/m2 FEW
00:54 -9.4 °C -10.6 °C 34384.8 hPa Calm     88% 0 mm WeatherDisplay:10.37 W/m2 FEW
00:59 -9.4 °C -10.6 °C 34384.8 hPa Calm     88% 0 mm WeatherDisplay:10.37 W/m2 FEW
01:04 -9.4 °C -10.6 °C 34384.8 hPa Calm     88% 0 mm WeatherDisplay:10.37 W/m2 CLR
01:09 -9.4 °C -10.6 °C 34381.4 hPa Calm     88% 0 mm WeatherDisplay:10.37 W/m2 CLR
01:14 -9.4 °C -10.2 °C 34381.4 hPa Calm     91% 0 mm WeatherDisplay:10.37 W/m2 CLR
01:19 -9.4 °C -10.2 °C 34381.4 hPa Calm     91% 0 mm WeatherDisplay:10.37 W/m2 CLR
01:24 -9.5 °C -10.4 °C 34378.1 hPa Calm     89% 0 mm WeatherDisplay:10.37 W/m2 CLR
01:29 -9.5 °C -10.5 °C 34381.4 hPa Calm     89% 0 mm WeatherDisplay:10.37 W/m2 CLR
01:34 -9.6 °C -10.5 °C 34381.4 hPa Calm     89% 0 mm WeatherDisplay:10.37 W/m2 CLR
01:39 -9.6 °C -10.5 °C 34378.1 hPa Calm     89% 0 mm WeatherDisplay:10.37 W/m2 CLR
01:44 -9.6 °C -10.5 °C 34378.1 hPa Calm     89% 0 mm WeatherDisplay:10.37 W/m2 CLR
01:49 -9.6 °C -10.5 °C 34374.7 hPa Calm     89% 0 mm WeatherDisplay:10.37 W/m2 CLR
01:54 -9.6 °C -10.5 °C 34374.7 hPa Calm     89% 0 mm WeatherDisplay:10.37 W/m2 CLR
01:59 -9.6 °C -10.5 °C 34374.7 hPa Calm     89% 0 mm WeatherDisplay:10.37 W/m2 CLR
02:04 -9.6 °C -10.5 °C 34374.7 hPa Calm     89% 0 mm WeatherDisplay:10.37 W/m2 SCT
02:09 -9.6 °C -10.6 °C 34374.7 hPa Calm     89% 0 mm WeatherDisplay:10.37 W/m2 SCT
02:14 -9.6 °C -10.6 °C 34367.9 hPa Calm     89% 0 mm WeatherDisplay:10.37 W/m2 SCT
02:19 -9.6 °C -10.6 °C 34367.9 hPa Calm     89% 0 mm WeatherDisplay:10.37 W/m2 SCT
02:24 -9.6 °C -10.6 °C 34367.9 hPa Calm     89% 0 mm WeatherDisplay:10.37 W/m2 SCT
02:29 -9.6 °C -10.6 °C 34364.5 hPa Calm     89% 0 mm WeatherDisplay:10.37 W/m2 SCT
02:34 -9.6 °C -10.6 °C 34364.5 hPa Calm     89% 0 mm WeatherDisplay:10.37 W/m2 SCT
02:39 -9.7 °C -10.7 °C 34364.5 hPa Calm     89% 0 mm WeatherDisplay:10.37 W/m2 SCT
02:44 -9.7 °C -10.7 °C 34364.5 hPa Calm     89% 0 mm WeatherDisplay:10.37 W/m2 SCT
02:49 -9.7 °C -10.7 °C 34364.5 hPa Calm     89% 0 mm WeatherDisplay:10.37 W/m2 SCT
02:54 -9.8 °C -10.7 °C 34364.5 hPa Calm     89% 0 mm WeatherDisplay:10.37 W/m2 SCT
02:59 -9.8 °C -10.7 °C 34361.1 hPa Calm     90% 0 mm WeatherDisplay:10.37 W/m2 SCT
03:04 -9.8 °C -10.7 °C 34361.1 hPa Calm     90% 0 mm WeatherDisplay:10.37 W/m2 SCT
03:09 -9.8 °C -10.7 °C 34361.1 hPa Calm     90% 0 mm WeatherDisplay:10.37 W/m2 SCT
03:14 -9.8 °C -10.7 °C 34361.1 hPa Calm     90% 0 mm WeatherDisplay:10.37 W/m2 SCT
03:19 -9.8 °C -10.7 °C 34361.1 hPa Calm     90% 0 mm WeatherDisplay:10.37 W/m2 SCT
03:24 -9.8 °C -10.7 °C 34357.7 hPa Calm     90% 0 mm WeatherDisplay:10.37 W/m2 SCT
03:29 -9.8 °C -10.7 °C 34357.7 hPa Calm     90% 0 mm WeatherDisplay:10.37 W/m2 SCT
03:34 -9.8 °C -10.7 °C 34357.7 hPa Calm     91% 0 mm WeatherDisplay:10.37 W/m2 FEW
03:39 -9.9 °C -10.8 °C 34357.7 hPa Calm     90% 0 mm WeatherDisplay:10.37 W/m2 FEW
03:44 -9.9 °C -10.8 °C 34361.1 hPa Calm     90% 0 mm WeatherDisplay:10.37 W/m2 FEW
03:49 -9.9 °C -10.7 °C 34357.7 hPa Calm     91% 0 mm WeatherDisplay:10.37 W/m2 FEW
03:54 -9.9 °C -10.8 °C 34357.7 hPa Calm     90% 0 mm WeatherDisplay:10.37 W/m2 FEW
03:59 -9.9 °C -10.8 °C 34354.4 hPa Calm     90% 0 mm WeatherDisplay:10.37 W/m2 FEW
04:04 -9.9 °C -10.7 °C 34354.4 hPa Calm     91% 0 mm WeatherDisplay:10.37 W/m2 SCT
04:09 -9.9 °C -10.7 °C 34354.4 hPa Calm     91% 0 mm WeatherDisplay:10.37 W/m2 SCT
04:14 -9.9 °C -10.7 °C 34354.4 hPa Calm     91% 0 mm WeatherDisplay:10.37 W/m2 SCT
04:19 -9.9 °C -10.7 °C 34354.4 hPa Calm     91% 0 mm WeatherDisplay:10.37 W/m2 SCT
04:24 -9.9 °C -10.8 °C 34354.4 hPa Calm     91% 0 mm WeatherDisplay:10.37 W/m2 SCT
04:29 -10 °C -10.9 °C 34351 hPa Calm     90% 0 mm WeatherDisplay:10.37 W/m2 SCT
04:34 -10.1 °C -10.9 °C 34354.4 hPa Calm     90% 0 mm WeatherDisplay:10.37 W/m2 SCT
04:39 -10.1 °C -10.9 °C 34354.4 hPa Calm     90% 0 mm WeatherDisplay:10.37 W/m2 SCT
04:44 -10.1 °C -10.9 °C 34351 hPa Calm     91% 0 mm WeatherDisplay:10.37 W/m2 SCT
04:49 -10.1 °C -11 °C 34351 hPa Calm     90% 0 mm WeatherDisplay:10.37 W/m2 SCT
04:54 -10.2 °C -11.1 °C 34351 hPa Calm     90% 0 mm WeatherDisplay:10.37 W/m2 SCT
04:59 -10.2 °C -11.2 °C 34351 hPa Calm     90% 0 mm WeatherDisplay:10.37 W/m2 SCT
05:04 -10.3 °C -11.1 °C 34351 hPa Calm     91% 0 mm WeatherDisplay:10.37 W/m2 FEW
05:09 -10.3 °C -11.1 °C 34351 hPa Calm     91% 0 mm WeatherDisplay:10.37 W/m2 FEW
05:14 -10.3 °C -11.2 °C 34351 hPa Calm     91% 0 mm WeatherDisplay:10.37 W/m2 FEW
05:19 -10.4 °C -11.2 °C 34351 hPa Calm     91% 0 mm WeatherDisplay:10.37 W/m2 FEW
05:24 -10.4 °C -11.2 °C 34351 hPa Calm     91% 0 mm WeatherDisplay:10.37 W/m2 FEW
05:29 -10.4 °C -11.2 °C 34351 hPa Calm     91% 0 mm WeatherDisplay:10.37 W/m2 FEW
05:34 -10.4 °C -11.2 °C 34347.6 hPa Calm     91% 0 mm WeatherDisplay:10.37 W/m2 FEW
05:39 -10.4 °C -11.3 °C 34347.6 hPa Calm     91% 0 mm WeatherDisplay:10.37 W/m2 FEW
05:44 -10.5 °C -11.3 °C 34347.6 hPa Calm     91% 0 mm WeatherDisplay:10.37 W/m2 FEW
05:49 -10.5 °C -11.3 °C 34347.6 hPa Calm     91% 0 mm WeatherDisplay:10.37 W/m2 FEW
05:54 -10.6 °C -11.3 °C 34344.2 hPa Calm     91% 0 mm WeatherDisplay:10.37 W/m2 FEW
05:59 -10.6 °C -11.3 °C 34344.2 hPa Calm     91% 0 mm WeatherDisplay:10.37 W/m2 FEW
06:04 -10.6 °C -11.4 °C 34344.2 hPa Calm     91% 0 mm WeatherDisplay:10.37 W/m2 FEW
06:09 -10.6 °C -11.4 °C 34344.2 hPa Calm     91% 0 mm WeatherDisplay:10.37 W/m2 FEW
06:14 -10.6 °C -11.3 °C 34344.2 hPa Calm     91% 0 mm WeatherDisplay:10.37 W/m2 FEW
06:19 -10.6 °C -11.3 °C 34344.2 hPa Calm     91% 0 mm WeatherDisplay:10.37 W/m2 FEW
06:24 -10.6 °C -11.3 °C 34340.8 hPa Calm     91% 0 mm WeatherDisplay:10.37 W/m2 FEW
06:29 -10.5 °C -11.3 °C 34337.4 hPa Calm     91% 0 mm WeatherDisplay:10.37 W/m2 FEW
06:34 -10.5 °C -11.3 °C 34337.4 hPa Calm     91% 0 mm WeatherDisplay:10.37 W/m2 FEW
06:39 -10.4 °C -11.3 °C 34340.8 hPa Calm     91% 0 mm WeatherDisplay:10.37 W/m2 FEW
06:44 -10.4 °C -11.2 °C 34340.8 hPa Calm     91% 0 mm WeatherDisplay:10.37 W/m2 FEW
06:49 -10.4 °C -11.2 °C 34344.2 hPa Calm     91% 0 mm WeatherDisplay:10.37 W/m2 FEW
06:54 -10.3 °C -11.1 °C 34344.2 hPa Calm     91% 0 mm WeatherDisplay:10.37 W/m2 FEW
06:59 -10.2 °C -11 °C 34344.2 hPa Calm     91% 0 mm WeatherDisplay:10.37 W/m2 FEW
07:04 -10.1 °C -10.8 °C 34344.2 hPa Calm     91% 0 mm WeatherDisplay:10.37 W/m2 FEW
07:09 -9.9 °C -10.7 °C 34347.6 hPa Calm     91% 0 mm WeatherDisplay:10.37 W/m2 FEW
07:14 -9.8 °C -10.6 °C 34347.6 hPa Calm     91% 0 mm WeatherDisplay:10.37 W/m2 FEW
07:19 -9.6 °C -10.4 °C 34344.2 hPa Calm     91% 0 mm WeatherDisplay:10.37 W/m2 FEW
07:24 -9.6 °C -10.3 °C 34344.2 hPa Calm     91% 0 mm WeatherDisplay:10.37 W/m2 FEW
07:29 -9.4 °C -10.2 °C 34344.2 hPa Calm     91% 0 mm WeatherDisplay:10.37 W/m2 FEW
07:34 -9.3 °C -10.1 °C 34340.8 hPa Calm     91% 0 mm WeatherDisplay:10.37 W/m2 FEW
07:39 -9.1 °C -9.9 °C 34340.8 hPa Calm     91% 0 mm WeatherDisplay:10.37 W/m2 FEW
07:44 -8.9 °C -9.7 °C 34340.8 hPa South 0.3 km/h 2.6 km/h 91% 0 mm WeatherDisplay:10.37 W/m2 FEW
07:49 -8.8 °C -9.6 °C 34340.8 hPa Calm     91% 0 mm WeatherDisplay:10.37 W/m2 FEW
07:54 -8.6 °C -9.4 °C 34344.2 hPa Calm     91% 0 mm WeatherDisplay:10.37 W/m2 FEW
07:59 -8.5 °C -9.3 °C 34344.2 hPa Calm     91% 0 mm WeatherDisplay:10.37 W/m2 FEW
08:04 -8.3 °C -9.1 °C 34344.2 hPa Calm     91% 0 mm WeatherDisplay:10.37 W/m2 FEW
08:09 -8.1 °C -8.9 °C 34344.2 hPa Calm     91% 0 mm WeatherDisplay:10.37 W/m2 FEW
08:14 -7.9 °C -8.7 °C 34337.4 hPa South 0.3 km/h 2.6 km/h 91% 0 mm WeatherDisplay:10.37 W/m2 FEW
08:19 -7.6 °C -8.4 °C 34340.8 hPa Calm   2.6 km/h 91% 0 mm WeatherDisplay:10.37 W/m2 FEW
08:24 -7.3 °C -8.2 °C 34344.2 hPa Calm     91% 0 mm WeatherDisplay:10.37 W/m2 FEW
08:29 -7.1 °C -8.1 °C 34344.2 hPa Calm     89% 0 mm WeatherDisplay:10.37 W/m2 FEW
08:34 -6.8 °C -7.9 °C 34340.8 hPa NW 2.3 km/h 10.3 km/h 88% 0 mm WeatherDisplay:10.37 W/m2 FEW
08:39 -6.6 °C -8 °C 34340.8 hPa South 0.3 km/h 2.6 km/h 85% 0 mm WeatherDisplay:10.37 W/m2 FEW
08:44 -6.3 °C -7.8 °C 34340.8 hPa Calm     84% 0 mm WeatherDisplay:10.37 W/m2 FEW
08:49 -6 °C -7.9 °C 34340.8 hPa ENE 0.5 km/h 9 km/h 81% 0 mm WeatherDisplay:10.37 W/m2 FEW
08:54 -5.9 °C -7.9 °C 34337.4 hPa Calm   3.1 km/h 80% 0 mm WeatherDisplay:10.37 W/m2 FEW
08:59 -5.9 °C -7.9 °C 34337.4 hPa Calm     80% 0 mm WeatherDisplay:10.37 W/m2 FEW
09:04 -5.9 °C -7.9 °C 34334 hPa Calm     80% 0 mm WeatherDisplay:10.37 W/m2 SCT
09:09 -5.9 °C -7.9 °C 34337.4 hPa South 1.3 km/h 9 km/h 79% 0 mm WeatherDisplay:10.37 W/m2 SCT
09:14 -5.8 °C -8.2 °C 34337.4 hPa Calm     77% 0 mm WeatherDisplay:10.37 W/m2 SCT
09:19 -5.7 °C -8.1 °C 34337.4 hPa Calm   3.1 km/h 77% 0 mm WeatherDisplay:10.37 W/m2 SCT
09:24 -5.7 °C -8.1 °C 34337.4 hPa Calm   3.1 km/h 77% 0 mm WeatherDisplay:10.37 W/m2 SCT
09:29 -5.8 °C -8.2 °C 34337.4 hPa Calm     76% 0 mm WeatherDisplay:10.37 W/m2 SCT
09:34 -5.8 °C -8.2 °C 34337.4 hPa Calm     76% 0 mm WeatherDisplay:10.37 W/m2 BKN
Tuulensuunkaari, Veikkola, Suomi
Compliments of Weather Underground - 1.75 mb